Вернуться в каталог

LEMUR-2 HCS-BAZUS

АктивенНаукаSSO
NORAD 67388·PAYLOAD·🇺🇸 United States

Запущен Jan 11, 2026 с Vandenberg Space Force Base

Loading…

Ближайшие Пролёты (ближайшие 24 часа)

TLE

СвежийSource: Space-Track

Эпоха: Sep 14, 2026, 10:45 UTC

1 67388U 26004AB  26257.44835305  .00002940  00000-0  30561-3 0  9991
2 67388  97.8080 255.3803 0003636 126.8286 233.3266 14.90660062 36607

Отслеживайте LEMUR-2 HCS-BAZUS в реальном времени с AllMySat

Download on the App Store